Weather History for Custer, SD

Change the Weather History Date:

Thursday, October 25, 2012

  Actual Average Record
Temperature  
Mean Temperature 25 °F 40 °F  
Max Temperature 35 °F 51 °F 79 °F (1992)
Min Temperature 14 °F 29 °F 9 °F (1942)
Degree Days  
Heating Degree Days 40 25  
Month to date heating degree days 576 537  
Since 1 July heating degree days 857 1023  
Cooling Degree Days 0 0  
Month to date cooling degree days 0 0  
Year to date cooling degree days 390 177  
Moisture  
Dew Point 20 °F    
Average Humidity 72    
Maximum Humidity 96    
Minimum Humidity 47    
Precipitation  
Precipitation 0.00 in 0.03 in 0.56 in (1954)
Month to date precipitation 1.29 1.33  
Year to date precipitation 11.57 17.82  
Sea Level Pressure  
Sea Level Pressure 30.22 in    
Wind  
Wind Speed 3 mph (SSW)    
Max Wind Speed 13 mph    
Max Gust Speed 17 mph    
Visibility 9 miles    
Events      
T = Trace of Precipitation, MM = Missing Value Source: NWS Daily Summary

Daily Weather History Graph

Daily Weather History Graph

Search for Another Location

Airport:

Trip Planner

Search our weather history database for the weather conditions in past years. The results will help you decide how hot, cold, wet, or windy it might be!

Date:

Astronomy

Oct. 25, 2012 Rise Set
Actual Time 7:22 AM MDT 5:54 PM MDT
Civil Twilight 6:52 AM MDT 6:23 PM MDT
Nautical Twilight 6:18 AM MDT 6:57 PM MDT
Astronomical Twilight 5:45 AM MDT 7:30 PM MDT
Moon 3:47 PM MDT (10/25) 3:13 AM MDT (10/25)
Length of Visible Light 11h 31m
Length of Day
10h 32m
Waxing Gibbous, 85% of the Moon is Illuminated
Oct 25
Waxing Gibbous
Oct 29
Full
Nov 6
Last Quarter
Nov 13
New
Nov 20
First Quarter

Hourly Weather History & Observations

Time (MDT) Temp. Windchill Dew Point Humidity Pressure Visibility Wind Dir Wind Speed Gust Speed Precip Events Conditions
12:53 AM 24.1 °F 16.0 °F 17.1 °F 75% 30.11 in 10.0 mi WNW 6.9 mph - N/A   Scattered Clouds
1:53 AM 23.0 °F 18.4 °F 17.1 °F 78% 30.13 in 10.0 mi NW 3.5 mph - N/A   Clear
2:53 AM 21.0 °F 16.2 °F 16.0 °F 81% 30.15 in 10.0 mi WNW 3.5 mph - N/A   Clear
3:53 AM 19.0 °F - 14.0 °F 81% 30.17 in 10.0 mi Calm Calm - N/A   Clear
4:53 AM 16.0 °F 7.4 °F 12.9 °F 88% 30.20 in 10.0 mi South 5.8 mph - N/A   Clear
5:53 AM 16.0 °F - 12.9 °F 88% 30.22 in 10.0 mi Calm Calm - N/A   Clear
6:53 AM 14.0 °F - 10.9 °F 88% 30.25 in 10.0 mi Calm Calm - N/A   Clear
7:53 AM 15.1 °F - 12.0 °F 88% 30.27 in 10.0 mi Calm Calm - N/A   Clear
8:53 AM 21.9 °F - 16.0 °F 78% 30.25 in 10.0 mi Calm Calm - N/A   Clear
9:53 AM 27.0 °F - 18.0 °F 69% 30.23 in 10.0 mi Calm Calm - N/A   Clear
10:53 AM 28.9 °F - 19.9 °F 69% 30.22 in 10.0 mi Calm Calm - N/A   Clear
11:29 AM 28.4 °F 24.6 °F 21.2 °F 74% 30.12 in 10.0 mi Variable 3.5 mph - N/A   Mostly Cloudy
11:53 AM 30.9 °F - 21.0 °F 67% 30.22 in 10.0 mi Calm Calm - N/A   Mostly Cloudy
12:06 PM 32.0 °F 27.5 °F 21.2 °F 64% 30.11 in 10.0 mi Variable 4.6 mph - N/A   Scattered Clouds
12:31 PM 28.4 °F 23.3 °F 21.2 °F 74% 30.11 in 10.0 mi SSW 4.6 mph - N/A   Mostly Cloudy
12:41 PM 28.4 °F - 21.2 °F 74% 30.11 in 10.0 mi Calm Calm - N/A   Scattered Clouds
12:53 PM 30.0 °F - 21.0 °F 69% 30.22 in 10.0 mi Calm Calm - N/A   Scattered Clouds
1:16 PM 32.0 °F 26.4 °F 23.0 °F 69% 30.11 in 10.0 mi Variable 5.8 mph - N/A   Overcast
1:39 PM 32.0 °F 26.4 °F 19.4 °F 60% 30.10 in 10.0 mi Variable 5.8 mph - N/A   Mostly Cloudy
1:53 PM 34.0 °F 29.8 °F 19.9 °F 56% 30.20 in 10.0 mi Variable 4.6 mph - N/A   Mostly Cloudy
2:53 PM 32.0 °F 23.6 °F 17.1 °F 54% 30.22 in 10.0 mi NNW 10.4 mph - N/A   Partly Cloudy
3:53 PM 33.1 °F 24.9 °F 16.0 °F 50% 30.25 in 10.0 mi West 10.4 mph - N/A   Partly Cloudy
4:53 PM 30.9 °F 27.5 °F 17.1 °F 57% 30.29 in 10.0 mi Variable 3.5 mph - N/A   Clear
5:13 PM 28.4 °F 23.3 °F 24.8 °F 86% 30.16 in 10.0 mi East 4.6 mph - N/A   Scattered Clouds
5:22 PM 26.6 °F 21.2 °F 24.8 °F 93% 30.16 in 10.0 mi SE 4.6 mph - N/A   Mostly Cloudy
5:53 PM 26.1 °F 21.9 °F 24.1 °F 92% 30.34 in 10.0 mi South 3.5 mph - N/A   Overcast
6:00 PM 26.6 °F 22.6 °F 24.8 °F 93% 30.17 in 10.0 mi Variable 3.5 mph - N/A   Overcast
6:44 PM 24.8 °F - 21.2 °F 86% 30.19 in 10.0 mi Calm Calm - N/A   Partly Cloudy
6:53 PM 25.0 °F - 23.0 °F 92% 30.37 in 10.0 mi Calm Calm - N/A   Scattered Clouds
7:00 PM 26.6 °F 21.2 °F 23.0 °F 86% 30.20 in 9.0 mi ESE 4.6 mph - N/A   Mostly Cloudy
7:10 PM 24.8 °F 19.1 °F 23.0 °F 93% 30.20 in 8.0 mi East 4.6 mph - N/A   Mostly Cloudy
7:33 PM 24.8 °F 19.1 °F 23.0 °F 93% 30.20 in 2.5 mi SE 4.6 mph - N/A   Overcast
7:41 PM 24.8 °F 19.1 °F 23.0 °F 93% 30.21 in 9.0 mi South 4.6 mph - N/A   Overcast
7:53 PM 24.1 °F 18.2 °F 23.0 °F 96% 30.39 in 2.5 mi South 4.6 mph - N/A   Overcast
8:02 PM 24.8 °F 19.1 °F 23.0 °F 93% 30.21 in 1.5 mi Variable 4.6 mph - N/A   Overcast
8:25 PM 24.8 °F 19.1 °F 23.0 °F 93% 30.22 in 0.8 mi Variable 4.6 mph - N/A   Overcast
8:34 PM 24.8 °F - 23.0 °F 93% 30.22 in 2.0 mi Calm Calm - N/A   Overcast
8:43 PM 24.8 °F - 21.2 °F 86% 30.22 in 7.0 mi Calm Calm - N/A   Overcast
8:53 PM 24.1 °F 19.7 °F 21.9 °F 91% 30.37 in 10.0 mi South 3.5 mph - N/A   Overcast
9:00 PM 24.8 °F - 21.2 °F 86% 30.22 in 10.0 mi Calm Calm - N/A   Overcast
9:25 PM 24.8 °F 20.5 °F 21.2 °F 86% 30.22 in 10.0 mi West 3.5 mph - N/A   Overcast
9:35 PM 23.0 °F - 21.2 °F 93% 30.23 in 10.0 mi Calm Calm - N/A   Overcast
9:53 PM 23.0 °F 18.4 °F 21.0 °F 92% 30.36 in 10.0 mi West 3.5 mph - N/A   Overcast
10:53 PM 21.9 °F 17.2 °F 19.9 °F 92% 30.37 in 10.0 mi SSW 3.5 mph - N/A   Overcast
11:37 PM 21.2 °F 13.6 °F 19.4 °F 93% 30.25 in 10.0 mi SW 5.8 mph - N/A   Overcast
11:53 PM 21.9 °F 14.5 °F 18.0 °F 85% 30.37 in 10.0 mi SW 5.8 mph - N/A   Overcast